Location: Asheville, NC
(35.6000°N, 82.5500°W)
Time: 17:00:38
(UTC-05:00)

KKS-1 - Pass Details

Date: 03 January 2018
Orbit: 637 x 651 km, 98.3° (Epoch: 20 January)

Event Time Altitude Azimuth Distance (km) Brightness Sun altitude
Rises 19:02:20 0° 352° (N) 2,941 ? -18.3°
Reaches altitude 10° 19:05:14 10° 332° (NNW) 2,029 ? -18.9°
Maximum altitude 19:07:58 16° 293° (WNW) 1,641 ? -19.4°
Drops below altitude 10° 19:10:42 10° 255° (WSW) 2,024 ? -20.0°
Sets 19:13:36 0° 234° (SW) 2,931 ? -20.5°
